This is the latest recevied weather packets stored in our database for station/object JS2WAD-13. If no packets are shown the sender has not sent any weather packets the latest 10 day(s).
| Time | Temp. | Humidity | Pressure | Rain* | Wind** | Luminosity | Snow |
|---|---|---|---|---|---|---|---|
| 1777354307 | 26.11° C | 45% | 902.1 hPa | 0 mm | - | 163 W/m² | - |
| 1777354007 | 26.11° C | 44% | 902.2 hPa | 0 mm | - | 178 W/m² | - |
| 1777353707 | 26.11° C | 44% | 902.2 hPa | 0 mm | - | 490 W/m² | - |
| 1777353407 | 26.11° C | 45% | 902.3 hPa | 0 mm | - | 770 W/m² | - |
| 1777353107 | 26.11° C | 45% | 902.3 hPa | 0 mm | - | 823 W/m² | - |
| 1777352807 | 26.11° C | 46% | 902.4 hPa | 0 mm | - | 856 W/m² | - |
| 1777352507 | 26.11° C | 46% | 902.4 hPa | 0 mm | - | 893 W/m² | - |
| 1777352207 | 26.11° C | 46% | 902.4 hPa | 0 mm | - | 373 W/m² | - |
| 1777351907 | 26.11° C | 45% | 902.6 hPa | 0 mm | - | 378 W/m² | - |
| 1777351607 | 26.11° C | 45% | 902.6 hPa | 0 mm | - | 531 W/m² | - |
| 1777351007 | 26.11° C | 46% | 902.7 hPa | 0 mm | - | 450 W/m² | - |
| 1777350707 | 26.11° C | 46% | 902.7 hPa | 0 mm | - | 417 W/m² | - |
| 1777350407 | 26.11° C | 46% | 902.7 hPa | 0 mm | - | 230 W/m² | - |
| 1777350107 | 26.11° C | 46% | 902.8 hPa | 0 mm | - | 285 W/m² | - |
| 1777349807 | 26.67° C | 46% | 902.9 hPa | 0 mm | - | 322 W/m² | - |
| 1777349507 | 26.11° C | 47% | 902.9 hPa | 0 mm | - | 330 W/m² | - |
| 1777349207 | 26.11° C | 47% | 902.9 hPa | 0 mm | - | 777 W/m² | - |
| 1777348907 | 26.11° C | 49% | 902.9 hPa | 0 mm | - | 580 W/m² | - |
| 1777348607 | 25.56° C | 49% | 903 hPa | 0 mm | - | 844 W/m² | - |
| 1777348307 | 25.56° C | 48% | 903.2 hPa | 0 mm | - | 733 W/m² | - |
| 1777348007 | 25.56° C | 48% | 903.1 hPa | 0 mm | - | 775 W/m² | - |
| 1777347707 | 25.56° C | 48% | 903.1 hPa | 0 mm | - | 854 W/m² | - |
| 1777347407 | 25.56° C | 48% | 903.4 hPa | 0 mm | - | 846 W/m² | - |
| 1777347107 | 25.56° C | 48% | 903.5 hPa | 0 mm | - | 916 W/m² | - |
| 1777346807 | 25.56° C | 48% | 903.5 hPa | 0 mm | - | 904 W/m² | - |
* Rain latest hour (hover to see other rain measurements)
** Current wind speed in m/s (hover to see current wind gust speed)